Regional Weather Roundup
Issued by NWS Northern Indiana

Home | Current Version | Previous Version | Graphics & Text | Print | Product List | Glossary On
Versions: 1 2 3 4 5 6 7 8 9 10 11 12 13 14 15 16 17 18 19 20 21 22 23 24 25 26 27 28 29 30 31 32 33 34 35 36 37 38 39 40 41 42 43 44 45 46 47 48 49 50
222
ASUS43 KIWX 250210
RWRIWX

KIWX WEATHER ROUNDUP
NATIONAL WEATHER SERVICE NORTHERN INDIANA
1000 PM EDT SAT JUN 24 2017

NOTE: "FAIR" INDICATES FEW OR NO CLOUDS BELOW 12,000 FEET WITH NO
SIGNIFICANT WEATHER AND/OR OBSTRUCTIONS TO VISIBILITY.

* THESE STATIONS ARE NOT UNDER NWS QUALITY CONTROL. THEY ALSO MAY NOT
  REPORT WEATHER SUCH AS PRECIPITATION OR FOG.

INZ001>027-250300-
NORTHERN INDIANA

CITY           SKY/WX    TMP DP  RH WIND       PRES   REMARKS
GARY*          PTCLDY    68  36  30 W14       30.05R
VALPARAISO     CLEAR     64  44  48 W6        30.06R
MICHIGAN CITY* CLEAR     64  45  48 NW6       30.05R
LAPORTE*       CLEAR     64  46  50 W6        30.05R
KNOX*          CLEAR     64  32  29 W8        30.05R
SOUTH BEND     CLEAR     63  49  60 W9        30.04R
GOSHEN         MOCLDY    63  48  58 W6        30.03R
MONTICELLO*    CLEAR     64  46  53 W6        30.07R
LOGANSPORT*    CLEAR     59  46  63 W7        30.08R
ROCHESTER*     CLEAR     68  43  40 W5        30.06R
WARSAW*        CLOUDY    64  50  59 W5        30.04R
AUBURN*        MOCLDY    63  52  67 CALM      30.04R
FORT WAYNE     MOCLDY    68  53  58 W9        30.04R
HUNTINGTON*    CLEAR     63  49  61 W6        30.05R
MARION*        PTCLDY    61  52  72 W7        30.08R

$$
INZ028>050-250300-
CENTRAL INDIANA

CITY           SKY/WX    TMP DP  RH WIND       PRES   REMARKS
LAFAYETTE      CLEAR     63  49  60 W6        30.08R
KOKOMO*        CLEAR     65  49  56 W9        30.09R
MUNCIE*        CLEAR     67  48  50 W8        30.08R
INDIANAPOLIS   PTCLDY    65  49  56 W7        30.09R

$$
MIZ043>046-050>051-056>058-064>065-071>073-077>080-250300-
SOUTHWEST LOWER MICHIGAN

CITY           SKY/WX    TMP DP  RH WIND       PRES   REMARKS
BATTLE CREEK   PTCLDY    62  48  60 W6        30.01R
BENTON HARBOR  CLEAR     65  52  62 W7        30.02R
COLDWATER*     PTCLDY    62  47  58 W5        30.01R
HILLSDALE*     CLEAR     61  46  59 W3        30.01R
HOLLAND        PTCLDY    62  52  69 SW5       30.00R
GRAND RAPIDS   MOCLDY    65  45  48 W9        29.99R
KALAMAZOO      PTCLDY    64  44  48 W3        30.01R
STURGIS*       MOCLDY    62  51  67 CALM      30.01R
THREE RIVERS*  FAIR      62  47  58 SW3       30.02R

$$
OHZ001>008-015>018-024>025-250300-
NORTHWEST OHIO

CITY           SKY/WX    TMP DP  RH WIND       PRES   REMARKS
WAUSEON*       FAIR      63  50  63 W7        30.01R
DEFIANCE       CLEAR     65  49  56 W3        30.02R
FINDLAY        MOCLDY    67  53  61 W5        30.01R
TOLEDO EXPRESS PTCLDY    66  50  56 W8        30.00R
TOLEDO METCALF PTCLDY    68  50  52 NW10      30.00R
LIMA           CLEAR     66  54  65 W12       30.03R

$$
AND FOR LAKE MICHIGAN COASTAL AND OPEN LAKE BUOY OBSERVATIONS

STATION/POSITION TEMP    WIND        PRES    VSBY  WAVE
                 AIR SEA DIR/SP/G                  HT/PER
                 (F)     (DEG/KT/KT) (MB)    (MI)  (FT/S)
CALUMET HARBOR    69     270/  4/  8 1016.7R
MICHIGAN CITY     68     290/ 19/ 21   N/A
BURNS HARBOR      68     310/ 13/ 15 1017.3R
SOUTH LAKE BUOY   64 62  310/ 10/ 12 1015.9R         1/ 4
4 MI NW BRIDGMAN  67 69  310/ 16/ 19 1016.9          3/ 3
MICHIGAN CITY     68 67  300/ 12/ 17   N/A           4/ 4

$$
&&




USA.gov is the U.S. government's official web portal to all federal, state and local government web resources and services.